CZ-6A DEB, 60878

Orbit data source: Space-Track

CZ-6A DEB, 60878 is space debris in LEO originally from a launch on Tue, 06 Aug 2024 UTC launched from the Taiyaun Space Center, China (TSC). Debris objects in space refer to the collection of defunct objects orbiting the Earth. Examples of debris include non-operational satellites, rocket bodies, and fragments generated from explosions, collisions, or faulty payload assembly.

Loading next visibility...
Identifier
60878, 2024-140KH
Orbit
LEO
Country
Flag of CNCN / PRC
Related business
Manufacturer
SAST
Mission
Spacecraft
Bus & Motor
Unknown
Mass
Unknown
Launch date (UTC)
2024-08-06 (2 years ago)
Launch vehicle
Unknown
Launch site
Taiyaun Space Center, China (TSC)
Object type
Payload
Rocket body
Debris
Shape & HBR
Unknown shape, 0.1 m
Radar Cross Section
Medium (>0.1 m² and <1 m²)

Expand to show TLE details & history
Last TLE update: 15 hours ago

TLE from 15 hours ago
0 CZ-6A DEB
1 60878U 24140KH  26171.24634698  .00038179  00000-0  19429-2 0  9994
2 60878  89.0643 271.5187 0076050 103.0370 257.9376 15.14117930100051
Epoch: 2026-06-20T05:54Z
TLE epoch observation values (Epoch: 2026-06-20T05:54:44.379Z)
Latitude
-0.00003°
Longitude
-85.62994°
Altitude
538.197 km
Speed
7.587 km/s
True Right ascension
18h 06m 04s
True Declination
0° 00' 00"
Sunlit
Object was in full shadow at epoch
Visualization orbit readout
Latitude
Unknown
Longitude
Unknown
Altitude
Unknown
Speed
Unknown
Apparent Right ascension
Unknown
Apparent Declination
Unknown
Sunlit
N/A
Visualization observer readout
Local Sidereal Time
07:21:44
Azimuth
Unknown
Elevation
Unknown
Doppler factor
Unknown
Orbital elements
Apogee altitude
572.939 km
Perigee altitude
468.011 km
Semi-major axis
6,898.612 km
Eccentricity
0.00761
Inclination
89.0643°
RAAN
271.5187°
Arg. of periapsis
103.037°
True anomaly
257.08709°
Mean anomaly
257.9376°
Eccentric anomaly
257.51217°
Mean motion
3.78792 °/min
Orbital period
95.04 mins
BSTAR
0.0019429
Loading maneuver chart data...
Computing Atmospheric mass density...
Loading historical data...
Loading historical data...
Loading historical data...
Loading historical data...
Loading historical data...
Loading historical data...
Loading historical data...

Documentation

Showing up to 5 results
|